Dewpoint
71 71 71 71 71 72 72 72 72 72 73 72 72 72 72 72 72 72 72 72 72 72 71 71 70 70 70 70 71 70 71 71 70 71 71 72 72 74 75 74 74 73 73 73 73 73 73 73 72 72 72 72 72 72 72 72 72 72 72 71 71 71 71 72 72 73 73 74 74 74 74 74 74 73 73 73 73 73 72 72 72 72 70 69 70
71 71 71 71 71 72 72 72 72 73 73 72 72 72 71 72 72 72 72 71 71 71 72 70 70 70 70 71 71 71 70 70 70 71 71 71 72 74 75 74 74 73 73 73 73 73 73 73 72 72 72 72 72 72 72 72 72 72 72 72 72 72 72 73 73 73 74 74 74 74 74 74 74 73 73 73 73 73 73 72 72 72 71 70 70
72 72 72 72 71 71 72 72 72 72 73 73 73 73 72 72 72 72 72 72 71 70 72 69 69 69 70 70 71 71 71 71 71 71 72 72 72 72 75 75 74 73 73 73 73 73 73 73 73 72 72 73 73 72 72 73 73 73 73 73 72 73 73 73 73 73 74 74 74 74 74 74 74 73 73 73 73 73 73 72 72 72 71 69 70
72 72 73 71 72 72 72 72 71 72 73 73 73 74 75 74 74 74 74 71 70 71 70 69 68 69 70 70 71 71 71 71 72 72 71 71 72 72 73 74 75 74 74 74 74 74 74 73 74 73 73 73 73 73 73 73 73 73 73 73 73 73 73 73 73 73 73 74 74 74 74 74 73 73 73 73 73 73 73 72 72 72 71 70 70
72 73 75 72 72 72 71 73 72 72 73 74 74 73 73 73 72 74 73 72 71 70 71 68 67 68 69 70 70 71 71 71 71 72 72 72 72 72 72 73 73 76 74 74 74 74 74 74 74 74 73 73 73 73 73 73 73 73 73 73 73 73 74 74 74 74 74 74 74 74 74 74 74 73 73 73 73 73 73 72 71 71 71 71 71
73 73 73 72 72 71 71 71 71 72 74 74 73 73 73 72 73 71 74 73 70 70 69 67 67 68 68 69 70 70 71 71 71 71 71 72 72 72 72 72 72 72 74 75 75 75 75 75 75 74 74 74 74 74 74 73 73 73 74 74 74 74 74 74 74 74 74 74 74 74 74 74 74 73 73 73 73 73 73 72 72 72 72 72 72
74 74 74 72 72 71 71 71 72 74 74 74 72 72 72 72 74 72 71 71 71 72 69 67 67 67 67 68 68 70 71 70 71 71 71 71 71 72 72 72 72 73 73 72 76 75 75 75 75 75 75 75 75 74 74 74 74 74 74 74 74 74 74 75 75 75 75 75 75 74 73 73 73 73 73 73 73 73 73 73 73 73 73 72 72
74 74 74 72 72 71 71 72 73 73 73 73 74 72 73 73 72 73 70 70 71 69 69 67 67 67 67 67 68 71 70 70 70 70 70 71 72 72 72 72 72 73 75 73 73 74 75 76 76 76 76 75 75 75 75 75 75 75 75 75 75 75 75 75 75 75 75 76 75 75 74 74 74 74 74 74 74 75 74 74 74 74 74 73 73
74 75 74 73 72 72 72 73 74 73 72 73 72 74 73 73 71 74 72 71 70 68 69 69 68 67 67 66 66 70 69 69 70 70 71 71 71 71 72 72 73 76 74 74 73 73 74 75 76 76 76 76 76 76 76 76 76 76 76 76 76 76 76 76 76 76 76 76 76 76 76 76 75 75 75 75 75 76 76 76 75 75 75 74 74
74 75 74 74 73 72 73 73 74 73 72 72 72 73 73 72 70 73 75 71 69 69 69 69 69 69 69 68 67 68 68 68 69 73 71 71 71 71 71 72 72 73 73 74 73 73 73 74 75 76 76 77 77 77 77 77 77 77 76 77 77 77 76 77 76 76 76 76 77 77 77 76 76 76 76 76 76 76 76 77 77 77 76 76 76
75 75 73 74 73 73 73 74 74 72 71 71 71 74 74 73 72 73 74 73 70 71 70 72 71 69 69 69 69 68 67 67 70 71 71 71 71 72 72 72 72 72 73 73 73 73 73 72 72 72 74 75 77 78 77 77 77 77 77 77 77 77 76 76 76 77 77 77 77 77 77 77 77 77 77 77 77 77 77 77 77 76 76 76 76
74 75 73 74 73 73 73 74 73 72 71 70 70 70 71 71 71 75 74 73 73 72 72 71 69 69 71 71 69 69 68 69 69 69 71 70 71 72 72 72 72 72 72 73 73 73 73 72 74 72 72 73 75 77 78 78 78 78 78 78 78 77 77 77 77 77 77 77 77 78 78 78 78 77 78 78 78 78 78 77 77 77 77 77 77
75 75 74 77 74 73 73 74 73 72 72 70 70 72 73 73 74 74 74 71 71 72 71 69 67 65 67 68 67 69 73 73 70 69 68 68 69 70 71 72 71 72 72 73 73 74 73 73 72 72 72 72 72 74 75 77 78 79 78 78 78 78 78 77 77 77 77 78 78 78 78 78 78 78 78 78 78 78 78 78 78 77 77 77 77
76 75 75 74 74 73 73 74 73 73 72 74 72 76 74 74 74 71 72 70 69 73 72 66 65 64 64 65 67 66 69 73 71 69 68 68 68 68 69 70 69 70 70 71 72 73 73 73 73 73 72 71 71 71 71 72 73 76 78 78 79 79 78 78 78 78 78 78 79 78 78 78 78 78 78 78 78 78 78 77 77 77 77 76 77
75 76 75 75 74 73 73 73 73 73 73 72 72 73 73 74 73 71 70 71 73 73 71 66 65 68 67 64 61 62 67 65 67 68 68 67 68 67 68 68 68 68 69 69 69 70 72 73 73 72 72 71 71 70 71 73 73 75 75 76 76 77 78 79 79 78 78 78 79 79 79 78 78 78 78 78 78 78 78 77 77 77 77 77 77
75 75 76 75 74 73 74 73 73 74 72 71 71 73 73 73 73 75 70 68 69 69 74 71 69 66 63 63 62 62 60 61 63 65 67 66 66 66 67 67 66 67 69 68 68 69 70 72 72 72 72 72 71 71 72 72 73 75 76 77 77 77 77 78 78 79 78 78 78 78 78 78 78 78 78 78 78 78 78 77 77 77 77 77 77
75 75 76 74 74 74 74 74 73 74 73 71 72 73 73 73 73 73 71 68 68 69 70 72 71 69 68 64 61 60 60 61 62 62 65 65 64 64 67 67 66 66 68 67 68 68 68 70 71 72 72 73 72 72 73 73 73 75 75 76 77 78 78 78 78 79 79 78 78 78 78 78 78 78 78 78 78 78 77 77 77 77 77 77 77
75 75 75 76 74 74 74 74 73 74 75 73 72 73 73 74 73 73 73 72 69 68 67 70 72 73 70 66 64 61 62 63 61 58 62 71 67 63 63 65 66 66 67 67 67 66 69 68 70 70 71 72 73 73 73 74 76 75 74 74 76 77 78 77 78 79 78 78 78 78 78 78 78 78 78 78 78 77 77 77 77 77 77 77 77
75 75 75 76 75 74 74 74 74 74 75 73 73 73 73 74 74 73 73 74 71 69 68 67 68 70 74 73 73 70 66 65 62 63 57 60 61 62 60 62 64 64 64 65 66 66 66 67 68 68 69 70 71 72 72 72 75 77 78 78 78 78 78 78 78 78 78 78 78 78 78 78 78 78 77 77 77 78 77 77 77 77 77 77 77
75 74 75 76 75 75 74 74 74 75 75 73 73 73 74 74 75 74 73 74 73 71 68 70 65 66 74 73 73 75 70 68 65 63 59 55 58 64 63 62 62 62 63 63 64 65 64 66 66 67 68 69 70 71 71 72 72 73 75 77 78 78 78 78 78 78 78 78 77 77 77 78 78 78 77 77 78 77 77 77 77 77 77 77 76
74 74 75 76 77 75 74 74 74 74 76 75 74 74 74 73 73 73 72 72 72 72 70 68 69 68 69 68 69 70 70 69 70 68 64 59 59 62 62 62 59 60 60 61 63 63 64 64 65 69 70 70 71 71 71 72 73 73 76 77 78 79 79 78 77 78 78 78 76 77 77 78 78 78 78 78 78 77 77 77 77 77 77 77 76
74 75 75 75 77 76 75 75 74 75 76 74 73 73 73 73 73 73 72 72 73 73 71 70 71 70 69 69 68 68 67 66 66 66 64 61 60 61 62 61 57 59 61 60 61 61 61 63 65 67 68 69 70 71 72 74 74 74 74 77 79 79 79 78 77 77 77 76 77 77 77 78 77 78 78 78 78 78 77 77 77 77 77 76 76
74 75 75 75 76 77 76 75 75 76 76 75 73 74 73 74 74 73 73 72 71 73 73 73 73 70 69 70 68 68 67 66 66 66 63 63 62 61 62 65 56 56 60 62 68 63 62 63 63 64 66 67 69 72 73 73 76 76 76 76 77 78 78 77 77 76 74 74 75 77 77 77 77 77 77 77 78 77 77 77 77 77 76 76 75
73 74 75 75 76 76 76 75 75 74 75 75 74 74 74 74 73 72 72 73 72 73 71 71 72 70 69 69 69 71 70 68 69 68 66 64 62 61 62 64 62 60 61 63 64 61 61 63 64 65 66 67 70 72 73 73 74 77 76 76 76 77 77 77 77 76 75 74 74 74 75 76 76 76 77 77 77 77 77 77 77 76 76 75 74
73 74 74 75 76 75 75 74 74 75 75 74 74 74 73 74 73 73 73 72 71 72 71 71 72 71 71 72 71 70 69 69 70 69 68 66 64 61 62 63 61 61 60 61 58 63 64 64 67 69 70 71 72 73 73 73 72 74 77 75 75 75 75 75 76 75 75 74 74 74 75 77 76 76 76 77 76 76 76 77 77 76 76 75 74
73 73 74 75 76 75 75 75 74 74 75 74 74 74 74 73 73 72 72 72 72 72 72 73 72 72 72 71 70 71 71 71 70 68 67 65 63 62 62 63 65 65 65 63 62 59 60 66 69 70 70 71 72 72 73 74 74 75 76 74 71 72 74 74 75 75 75 75 74 75 75 75 76 77 76 77 77 77 77 77 77 76 75 75 73
73 74 75 74 75 75 75 74 74 74 74 74 75 74 75 74 74 73 73 73 72 73 72 72 72 72 71 70 72 72 71 71 71 70 67 65 64 65 62 59 59 63 65 64 64 62 59 65 68 69 70 72 72 72 73 74 75 76 76 74 72 72 72 73 74 74 74 74 74 74 74 74 75 76 76 76 77 77 77 77 77 76 75 73 72
73 74 74 74 74 74 75 75 74 74 74 74 74 74 75 74 73 73 72 75 72 72 72 72 72 72 71 71 71 71 70 70 72 72 70 69 70 68 66 62 59 58 62 62 63 62 64 65 67 69 71 71 72 72 75 76 75 75 76 74 73 72 72 72 72 73 73 73 73 74 74 74 74 75 75 75 76 76 76 76 76 76 75 74 73
73 74 74 74 73 73 74 74 75 74 74 75 75 75 74 75 74 72 72 73 73 72 72 72 72 73 72 72 71 71 72 72 72 72 73 71 71 69 68 65 63 61 61 60 60 63 64 68 64 66 72 73 73 74 74 73 74 75 74 73 72 71 70 70 71 72 72 71 72 72 73 73 74 74 75 76 75 75 76 76 75 76 75 74 72
74 73 74 74 73 76 73 74 75 75 75 75 75 75 75 74 74 73 73 73 73 73 73 72 73 72 73 73 72 72 72 71 70 71 72 71 71 70 69 69 67 64 64 61 62 64 66 68 70 68 70 70 71 71 72 72 74 74 74 74 72 71 70 70 71 71 71 71 71 71 72 73 73 73 73 73 73 74 75 75 75 76 75 74 73
75 74 74 74 73 74 74 74 74 75 75 75 75 75 75 74 74 74 74 74 73 73 73 73 73 73 72 72 72 72 73 72 71 71 72 73 71 72 71 71 70 68 67 64 62 65 68 67 69 70 70 70 71 72 71 72 74 74 74 73 73 73 72 73 72 71 71 70 70 70 70 70 70 70 70 71 72 73 73 74 74 75 75 74 73
74 74 73 73 74 73 74 74 74 75 75 75 75 75 75 74 74 74 74 74 73 72 73 73 74 73 72 72 72 72 73 72 72 72 72 72 71 70 72 71 70 70 69 65 63 64 68 69 69 71 72 71 72 72 71 73 74 75 74 74 74 74 74 74 73 72 71 70 69 69 68 68 68 68 69 71 72 73 73 73 73 74 74 74 73
74 74 74 73 73 73 73 74 74 74 74 74 75 75 74 74 74 73 73 74 74 73 73 73 74 73 73 72 72 73 73 73 72 72 72 71 71 71 72 69 69 70 68 66 64 66 66 68 70 71 72 73 70 71 71 72 72 73 74 74 74 74 73 73 73 72 71 70 69 68 68 67 67 67 68 70 71 72 73 74 73 73 73 72 71
74 73 74 74 74 74 73 73 74 74 74 74 74 75 74 74 74 75 74 73 73 73 73 73 73 74 73 72 73 73 73 73 73 72 72 72 71 70 69 71 69 69 69 67 65 65 64 66 67 69 70 72 69 71 71 71 71 74 73 73 73 72 73 73 73 73 71 70 68 67 67 67 66 67 67 69 70 71 71 71 71 70 70 70 69
73 73 73 73 74 74 73 73 73 74 74 74 74 74 74 74 74 74 75 74 74 74 73 73 73 73 73 73 73 73 73 72 73 72 72 72 71 70 70 70 69 69 70 69 66 65 66 66 67 68 69 70 70 69 71 72 73 73 72 72 72 73 73 73 73 73 71 70 68 67 66 66 66 66 66 67 68 69 69 68 68 67 68 67 66
70 72 73 73 73 74 74 73 73 74 74 74 75 75 74 75 74 74 74 74 74 74 74 74 74 73 73 73 73 73 72 72 72 72 72 71 70 70 70 70 69 69 69 70 69 67 66 66 67 68 69 68 70 71 72 73 73 73 72 72 72 72 73 74 74 74 72 70 69 68 67 66 66 65 65 66 66 66 65 65 65 65 65 65 65
70 70 72 73 73 73 73 73 73 73 73 74 74 74 74 75 75 74 74 74 74 74 74 74 76 74 73 73 73 73 72 72 72 72 72 71 71 70 70 70 70 70 70 70 70 69 68 67 68 68 69 70 71 71 72 72 72 71 71 71 72 72 73 74 74 73 71 70 70 69 68 67 67 66 65 65 65 65 64 64 64 64 64 64 64
69 69 70 72 72 72 73 73 73 73 73 73 74 74 74 74 75 75 74 74 74 74 74 74 73 74 74 73 73 73 73 72 72 72 72 71 71 71 70 70 70 70 70 69 69 69 69 69 68 68 67 68 68 69 70 71 71 71 71 71 71 72 72 72 71 71 71 72 72 72 70 69 68 65 65 66 65 64 64 64 64 64 63 62 61
68 68 69 70 72 72 72 72 72 72 72 72 73 73 73 74 74 74 74 74 74 74 74 74 73 73 73 74 74 73 73 73 72 72 72 72 72 72 71 71 70 69 69 69 69 68 68 68 68 69 69 69 70 69 70 71 70 71 71 71 70 71 70 69 69 70 70 71 71 70 71 70 70 69 66 64 64 63 64 64 63 63 63 61 60
68 67 68 69 70 71 72 72 72 72 72 72 72 72 73 73 73 74 74 74 74 73 73 73 73 73 73 73 73 73 73 73 73 72 72 72 71 71 71 71 70 70 69 69 69 69 68 68 67 68 67 67 68 70 71 69 69 68 70 71 69 69 70 69 69 70 71 71 71 71 71 70 70 69 65 65 65 66 65 65 65 65 65 63 62
68 67 67 67 68 70 71 71 72 72 72 72 71 71 72 72 72 72 73 73 73 73 73 72 73 73 73 73 73 73 74 76 75 75 74 74 71 70 71 71 70 70 69 69 68 67 67 67 67 67 66 67 68 68 68 67 67 67 68 68 68 69 69 70 70 71 71 71 71 72 72 72 72 72 71 70 70 69 68 67 67 68 67 64 63
69 68 67 67 67 68 69 70 71 71 71 71 72 70 71 72 71 71 72 72 73 73 72 72 72 72 72 72 72 76 76 76 74 73 71 73 75 73 71 70 70 70 69 68 68 68 67 67 67 66 66 66 66 66 67 67 68 68 69 68 68 69 69 69 69 69 70 70 70 70 71 73 72 71 71 70 70 71 71 70 70 69 68 65 64
69 69 70 66 65 66 67 68 69 70 70 71 69 66 66 68 72 71 71 71 71 72 72 71 71 71 71 71 71 73 75 77 76 73 71 69 70 72 74 74 74 70 69 68 68 68 68 67 67 67 66 66 67 67 67 68 69 69 69 68 69 68 67 66 66 68 69 70 69 68 68 69 70 69 68 69 69 70 71 71 69 68 66 65 64
70 70 69 68 67 66 65 66 68 69 69 70 65 64 65 65 69 71 71 70 70 70 70 70 70 70 70 70 70 70 70 70 71 71 72 72 69 69 68 69 70 71 72 70 69 68 67 67 67 67 67 67 67 68 68 68 69 69 69 69 68 68 67 66 65 66 68 73 69 67 67 68 69 69 68 69 69 70 71 69 68 67 66 65 65
71 70 69 69 68 67 66 65 65 67 69 67 64 63 63 63 64 69 70 70 70 70 70 70 70 70 70 70 69 69 68 73 74 71 69 69 69 68 68 68 69 68 66 67 69 70 68 68 67 67 67 68 68 68 69 69 68 68 68 67 68 67 67 67 68 67 68 70 68 66 67 68 68 68 68 69 69 70 71 69 68 67 66 65 65
71 71 71 69 69 68 69 68 67 66 67 67 63 62 61 62 62 64 69 70 70 70 70 70 70 70 69 69 69 69 69 69 69 69 69 69 68 68 68 68 69 70 70 67 66 67 69 69 69 68 68 69 69 69 70 70 69 69 68 68 68 67 67 68 68 69 70 70 68 67 68 69 68 67 68 68 70 71 71 68 66 65 65 64 64
72 72 71 71 70 70 70 70 69 68 66 65 62 61 60 60 61 63 67 68 69 69 69 70 70 70 70 69 69 69 69 69 69 69 68 67 67 67 67 67 68 68 68 68 68 68 68 69 69 70 70 70 70 70 70 70 70 70 69 69 69 69 69 69 69 70 70 71 70 68 67 67 66 66 68 69 70 70 71 67 65 65 64 63 63
72 72 72 72 72 71 71 70 70 69 69 64 61 60 58 59 60 65 66 67 68 69 69 70 70 70 70 70 69 69 68 68 70 68 70 69 66 65 65 65 65 65 65 68 65 66 68 68 68 68 69 69 67 70 70 70 70 71 71 68 66 67 68 66 66 66 66 67 69 69 67 67 68 68 68 69 69 70 71 71 67 65 64 62 63
71 71 71 72 72 72 72 71 71 70 70 67 62 59 57 57 59 65 66 67 68 68 68 69 70 70 70 70 70 69 69 68 68 63 63 68 68 67 66 65 65 64 64 64 63 61 62 61 61 62 62 62 62 61 60 61 65 67 65 64 64 65 64 63 64 65 65 66 66 69 68 67 68 68 69 69 70 70 70 70 69 64 63 62 61
71 71 71 71 72 72 72 72 71 71 70 69 61 59 57 56 61 65 66 67 67 68 68 69 70 70 71 73 74 70 69 69 65 62 62 65 66 66 66 65 65 65 65 65 64 64 60 59 59 60 60 61 61 61 61 61 61 64 65 64 65 65 65 65 65 66 66 66 66 71 66 67 67 67 68 68 65 67 68 68 67 66 62 60 59
71 71 72 72 72 72 72 72 73 73 72 71 63 59 59 58 60 64 65 66 66 67 68 68 69 69 69 72 73 72 71 69 63 61 61 65 65 66 66 65 65 64 64 64 64 63 64 65 66 68 68 66 67 66 67 64 63 69 66 65 65 65 65 66 66 66 65 65 65 69 66 65 64 66 66 64 63 64 65 66 66 66 65 64 63